Flag for U.S.A. Weather past 2 weeks in Colorado Springs, Colorado, U.S.A.

Now
57 °F

Partly sunny.


Feels Like: 53 °F
Forecast: 36 / 60 °F
Wind: 16 mph from East

Location: City Of Colorado Springs Municipal Airport

Current Time: Apr 21, 2015 at 7:51:24 PM

Latest Report: Apr 21, 2015 at 6:54 PM


Visibility: 10 mi

Pressure: 29.88 "Hg

Humidity: 36%

Dew point: 30 °F

Location of Colorado SpringsLocation

Historic Weather in Colorado Springs — Graph

°F

Colorado Springs temperature yesterday

Maximum temperature yesterday: 53 °F (at 4:54 PM)
Minimum temperature yesterday: 34 °F (at 4:54 AM)
Average temperature yesterday: 43 °F

Past Weeks' High & Low Weather Summary

 TemperatureHumidityPressure
High72 °F (Apr 14, 3:54 PM)100% (Apr 17, 4:54 AM)30.24 "Hg (Apr 17, 4:54 AM)
Low29 °F (Apr 10, 5:54 AM)3% (Apr 15, 2:54 PM)29.33 "Hg (Apr 8, 3:54 PM)
Average48 °F46%29.90 "Hg
* Reported Apr 6 5:54 PM — Apr 21 5:54 PM, Colorado Springs, Weather by CustomWeather, © 2015

Note: Actual official high and low records may vary slightly from our data, if they occured in-between our weather recording intervals... More about our weather records

Advertising

Colorado Springs weather history for previous 24 hours

 ConditionsComfort  
Time TempWeatherWind HumidityBarometerVisibility
5:54 PM
Tue, Apr 21
60 °FPartly sunny.15 mph30%29.85 "Hg10 mi
4:54 PM60 °FPartly sunny.9 mph30%29.84 "Hg10 mi
3:54 PM64 °FScattered clouds.20 mph25%29.81 "Hg10 mi
2:54 PM62 °FPartly sunny.9 mph24%29.82 "Hg10 mi
1:54 PM62 °FPartly sunny.7 mph25%29.82 "Hg10 mi
12:54 PM63 °FScattered clouds.7 mph24%29.83 "Hg10 mi
11:54 AM63 °FScattered clouds.9 mph23%29.83 "Hg10 mi
10:54 AM57 °FPassing clouds.7 mph31%29.87 "Hg10 mi
9:54 AM54 °FPassing clouds.6 mph37%29.89 "Hg10 mi
8:54 AM50 °FPassing clouds.6 mph54%29.89 "Hg10 mi
7:54 AM45 °FSunny.5 mph71%29.92 "Hg10 mi
6:54 AM37 °FPassing clouds.7 mph79%29.94 "Hg10 mi
5:54 AM33 °FPassing clouds.9 mph85%29.95 "Hg10 mi
4:54 AM36 °FPassing clouds.No wind82%29.91 "Hg10 mi
3:54 AM36 °FPassing clouds.3 mph85%29.94 "Hg10 mi
2:54 AM37 °FPassing clouds.6 mph79%29.93 "Hg10 mi
1:54 AM40 °FClear.3 mph73%29.92 "Hg10 mi
12:54 AM38 °FClear.7 mph79%29.96 "Hg10 mi
11:54 PM
Mon, Apr 20
40 °FClear.6 mph77%29.98 "Hg10 mi
10:54 PM42 °FClear.3 mph73%29.98 "Hg10 mi
9:54 PM42 °FPassing clouds.6 mph76%30.01 "Hg10 mi
8:54 PM45 °FMostly cloudy.7 mph65%29.98 "Hg10 mi
7:54 PM47 °FBroken clouds.12 mph59%29.96 "Hg10 mi
Weather by CustomWeather, © 2015

See weather overviewHow to use our weather pages